196  
ASUS44 KLCH 031011  
RWRLCH  
REGIONAL WEATHER ROUNDUP  
NATIONAL WEATHER SERVICE LAKE CHARLES LA  
500 AM CDT WED JUN 03 2020  
 
NOTE: "FAIR" INDICATES FEW OR NO CLOUDS BELOW 12,000 FEET WITH NO  
SIGNIFICANT WEATHER AND/OR S TO VISIBILITY
.  
 
ACROSS SOUTHEAST TEXAS  
 
CITY SKY/WX TMP DP RH WIND PRES REMARKS
 
BEAUMONT CLEAR 73 73 100 CALM 29.98S  
BEAUMONT CITY NOT AVBL  
ORANGE FOG 73 71 95 CALM 30.01S VSB 1/2  
JASPER CLEAR 71 70 98 CALM 30.03S FOG  

 
 
ACROSS CENTRAL LOUISIANA  
 
CITY SKY/WX TMP DP RH WIND PRES REMARKS
 
LEESVILLE CLOUDY 70 69 94 NW5 30.00S  
FULLERTON FAIR 72 69 90 CALM 29.99S  
ALEXANDRIA INT CLOUDY 72 69 90 CALM 29.99S  
ESLER FIELD CLOUDY 71 69 93 CALM 30.01R FOG  
DERIDDER FAIR 70 68 95 CALM 30.02F  
OAKDALE PTSUNNY 68 66 94 CALM 30.00S FOG  
OPELOUSAS FAIR 74 73 96 CALM 30.01R  

 
 
ACROSS SOUTHWEST AND SOUTH CENTRAL LOUISIANA  
 
CITY SKY/WX TMP DP RH WIND PRES REMARKS
 
DEQUINCY FAIR 69 67 95 CALM 30.00F  
SULPHUR MOSUNNY 74 74 100 CALM 30.00S  
LAKE CHARLES PTCLDY 73 73 100 CALM 29.99S FOG  
CHENNAULT INT PTCLDY 73 73 98 CALM 29.99S FOG  
CAMERON PHI NOT AVBL  
GRAND CHENIER NOT AVBL  
JENNINGS FAIR 75 74 97 CALM 30.00S  
LAFAYETTE PTCLDY 76 73 91 CALM 30.00S  
NEW IBERIA PTCLDY 74 73 97 CALM 30.00S  
ABBEVILLE FAIR 74 71 92 CALM 30.00S FOG  
PATTERSON PTCLDY 75 75 100 CALM 30.01S  
SALT POINT N/A 76 75 97 CALM 29.99S  

 
 
SELECTED SITES ACROSS THE REGION  
 
CITY SKY/WX TMP DP RH WIND PRES REMARKS
 
HOUSTON BUSH PTCLDY 73 70 90 CALM 29.98F  
HOUSTON HOBBY MOCLDY 76 72 87 CALM 29.98S  
GALVESTON MOCLDY 81 76 84 SE3 29.98F  
COLLEGE STAT PTCLDY 72 68 87 CALM 29.99F  
CONROE PTCLDY 69 67 93 CALM 30.00F FOG  
HUNTSVILLE PTCLDY 73 67 81 CALM 30.00F  
LUFKIN MOCLDY 72 69 90 CALM 30.01S  
SHREVEPORT MOCLDY 72 66 81 S5 30.00F  
MONROE CLOUDY 73 71 93 CALM 30.02R  
NATCHEZ MS CLOUDY 74 72 93 S3 30.03R  
BATON ROUGE MOCLDY 75 73 93 E5 30.01R  
N.O. INTL ARPT MOCLDY 80 76 87 E5 30.01S  
SLIDELL TSTM 73 68 84 VRB3 30.02S  

 
 
MARINE REPORTS  
 
STATION/POSITION TIME SKY/WX TEMP WIND PRES VSBY
 
AIR SEA DIR/SP/G  
(UTC) (F) (DEG/KT/KT) (MB) (MI)  
BUOY 30 S HIGH I 0950 80 80 140/ 8/ 8 1014.5F  
WVE H/P(F/S)= 2/ 7  
 
SEA RIM ST PARK NOT AVBL  
PORT ARTHUR 0930 77 82 CALM / 1 1015.2S  
SABINE PASS N 0930 83 CALM 1017.2S  
TEXAS POINT 0930 80 82 140/ 4/ 5 1013.7S  
CALCASIEU PASS 0930 80 83 160/ 3/ 4 1013.6S  
LK CHARLES BEACH 0930 76 79 1015.4F  
MARSH ISLAND NOT AVBL  
FRESH WATER LOCK 0930 78 83 30/ 1/ 2 1015.6R  
AMERADA PASS 0930 76 77 50/ 1/ 3 1015.9S  

 
 
 
CLICK HERE TO GO TO PREVIOUS BULLETINS.

The Nexlab LA Page
The Nexlab TX Page Main Text Page